Location: Mountain_View
(35.6670°N, 81.4000°W)
Time: 01:08:31
(UTC-04:00)

Daily predictions for brighter satellites

Satellite Brightness Start Highest point End
(mag) Time Altitude Azimuth Time Altitude Azimuth Time Altitude Azimuth
Cosmos 2263 Rocket 4.4 00:05:28 10° NNW 00:07:11 20° NW 00:07:11 20° NW
ATLAS CENTAUR R/B 4.4 00:42:26 71° NNW 00:42:26 71° NNW 01:03:50 10° NE
ATLAS 3B R/B 4.2 02:10:14 34° N 02:10:14 34° N 02:14:36 10° NNE
USA 234 4.5 02:59:32 10° NE 03:03:20 33° E 03:03:20 33° E
Cosmos 2369 Rocket 3.7 03:20:50 10° N 03:24:37 32° NNE 03:24:37 32° NNE
CENTAUR R/B 3.9 03:32:55 28° E 03:32:55 28° E 03:37:44 10° NE
Resurs 1-4 Rocket 3.7 03:30:16 10° NNE 03:33:46 31° ENE 03:33:46 31° ENE
NOSS 3-2 (C) 4.3 03:37:46 46° N 03:37:46 46° N 03:42:31 10° NNE
Centaur D-1A AC-31 3.6 02:41:37 10° WSW 03:38:21 54° SSE 03:43:54 10° ESE
Cosmos 1943 Rocket 4.3 03:40:35 10° N 03:45:03 23° ENE 03:49:28 10° ESE
Okean O Rocket 4.3 03:46:07 10° ENE 03:48:01 12° E 03:48:35 12° E
Cosmos 2315 Rocket 4.4 03:51:10 56° E 03:51:10 56° E 03:57:10 10° NNE
CZ-4C R/B 4.3 04:06:22 16° NW 04:06:22 16° NW 04:09:43 10° N
Cosmos 839 Rocket 4.1 03:58:33 10° NNW 04:06:15 84° WNW 04:06:15 84° WNW
ATLAS 5 CENTAUR R/B 2.6 04:15:17 48° NNE 04:15:17 48° NNE 04:19:05 10° NNE
Meteor 2-10 4.4 04:20:35 59° NNW 04:20:35 59° NNW 04:25:03 10° N
SL-16 R/B 2.3 04:23:32 79° W 04:23:32 79° W 04:29:42 10° NNW
Cosmos 1302 Rocket 4.3 04:24:49 10° NNW 04:28:59 57° NNW 04:28:59 57° NNW
UNKNOWN OBJECT B 4.3 04:34:54 10° N 04:36:50 29° N 04:36:50 29° N
IRS-1D 4.2 04:33:48 10° N 04:37:54 41° NW 04:37:54 41° NW
Cosmos 1709 Rocket 3.9 04:35:03 10° NNW 04:41:16 61° W 04:41:39 60° WSW
Cosmos 1869 4.4 04:44:49 38° N 04:44:49 38° N 04:47:22 10° N
SeaSat 1 3.5 04:39:21 10° SE 04:44:03 46° ENE 04:48:45 10° NNW
CZ-2D R/B 2.5 04:39:14 10° N 04:43:49 48° NW 04:43:49 48° NW
ARIANE 5 R/B 3.5 04:41:34 10° N 04:45:27 33° NW 04:45:27 33° NW
Cosmos 389 Rocket 3.9 04:49:10 32° N 04:49:10 32° N 04:51:11 10° N
Cosmos 1733 Rocket 3.5 04:44:16 10° N 04:47:35 49° NNW 04:47:35 49° NNW
USA 234 3.8 04:42:31 10° NNE 04:48:42 46° NW 04:50:41 36° W
Cosmos 1933 3.6 04:54:18 59° SE 04:54:51 68° E 04:58:57 10° NNE
GPS 2-05 Rocket1 4.4 04:59:49 27° SE 04:59:49 27° SE 05:01:55 10° E
COSMOS 2406 3.1 04:58:37 44° SSW 05:00:33 87° WNW 05:06:21 10° NNE
CZ-4B R/B 3.3 04:57:38 10° NNE 05:01:16 53° E 05:02:25 37° SSE
Cosmos 2074 Rocket 4.0 04:57:43 10° N 05:03:59 86° E 05:10:14 10° S
Atlas Centaur 2 2.9 05:04:52 25° SSE 05:05:10 25° SSE 05:09:12 10° ESE
Cosmos 2327 Rocket 4.4 04:59:54 10° N 05:06:03 87° E 05:12:15 10° S
MOZ.5/SAFIR/RUBIN 5/SL-8 3.7 05:02:52 13° SSE 05:07:03 86° ENE 05:11:42 10° N
COSMOS 2487 4.1 05:07:09 20° SSE 05:08:59 33° ESE 05:12:16 10° NE
Aureole 3 Rocket 4.3 05:01:38 10° S 05:09:01 67° E 05:14:14 10° NNE
Cosmos 2184 Rocket 4.0 05:02:47 10° N 05:09:13 89° W 05:15:33 10° S
Cosmos 1174 4.4 05:07:43 46° SW 05:09:14 69° WNW 05:13:51 10° NNE
Cosmos 2369 Rocket 4.1 05:05:16 10° NW 05:06:18 14° NW 05:06:18 14° NW
Cosmos 1455 4.2 05:12:01 17° NW 05:12:01 17° NW 05:13:23 10° NNW
CZ-2D R/B 4.1 05:09:34 10° N 05:13:35 38° WNW 05:13:35 38° WNW
Cosmos 1190 Rocket 4.2 05:10:40 23° S 05:13:56 69° ESE 05:19:06 10° NNE
Resurs 1-4 Rocket 3.2 05:10:29 10° NNW 05:14:42 25° WNW 05:14:50 25° WNW
CZ-4B R/B 3.0 05:10:50 10° NNE 05:16:10 88° W 05:19:40 22° SSW
CZ-4B DEB 4.2 05:11:05 10° NNE 05:16:35 85° ESE 05:20:46 18° SSW
Cosmos 1908 Rocket 3.4 05:14:02 10° N 05:18:25 78° W 05:21:54 16° S
CZ-3 R/B 4.2 04:27:57 10° W 05:18:26 52° SW 05:29:32 10° SE
ADEOS Rocket 4.1 05:11:08 10° NNE 05:18:49 59° E 05:26:19 10° S
SL-08 ROCKET BODY 4.3 05:13:48 10° N 05:19:51 78° W 05:25:58 10° S
Thor Agena Rocket 3.9 05:15:46 10° SSE 05:20:50 66° ENE 05:26:00 10° N
CENTAUR R/B 3.0 05:20:07 30° W 05:22:35 44° NW 05:29:03 10° NNE
Cosmos 2221 Rocket 3.4 05:20:58 26° SSW 05:23:27 81° W 05:27:53 10° N
Cosmos 1992 Rocket 4.0 05:18:58 10° NNW 05:24:13 88° ENE 05:29:27 10° SSE
Okean O Rocket 1.9 05:20:19 10° N 05:24:38 50° WNW 05:26:03 36° SW
SL-27 R/B 3.8 05:27:08 25° WNW 05:27:08 25° WNW 05:29:50 10° N
ADEOS II 2.9 05:22:28 10° NNE 05:27:35 50° E 05:32:39 10° S
ARGOS Delta rocket 4.3 05:24:44 10° N 05:28:41 33° WNW 05:29:24 31° W
Cosmos 1943 Rocket 2.4 05:23:37 10° NW 05:28:58 44° WSW 05:34:15 10° S
USA 32 3.9 05:25:48 15° SSW 05:30:08 71° W 05:35:22 10° N
PSLV R/B 4.4 05:27:16 10° N 05:30:43 34° WNW 05:31:08 33° W
Okean-O 3.2 05:27:20 10° NNE 05:31:43 57° E 05:36:04 10° S
Cosmos 1703 Rocket 3.7 05:30:58 27° SSW 05:33:10 54° W 05:37:34 10° N
PSLV R/B 4.3 05:32:00 20° NW 05:34:04 42° NNE 05:37:20 10° E
Cosmos 1408 2.7 05:30:37 10° NNW 05:34:16 51° W 05:36:27 22° SSW
Sich 1 Rocket 4.2 05:36:41 10° NNW 05:40:36 32° W 05:42:28 23° SW
Cosmos 2285 Rocket 4.0 05:34:28 10° NNW 05:40:48 64° WSW 05:47:04 10° S
Cosmos 1825 2.9 05:44:52 10° NNW 05:48:17 32° W 05:50:26 18° SW
Cosmos 676 Rocket 4.0 05:46:39 10° SSW 05:51:49 89° WNW 05:57:02 10° NNE
PSLV R/B 3.6 05:50:32 10° N 05:54:53 67° WNW 05:59:14 10° SSW
Meteor 1-31 Rocket 3.8 05:51:34 10° NNE 05:55:16 47° E 05:58:57 10° S
Cosmos 1656 Rocket 3.6 05:52:56 10° NNW 05:58:12 54° WSW 06:03:28 10° S
ATLAS 5 CENTAUR R/B 4.1 05:57:57 10° WNW 05:59:38 11° NW 06:01:20 10° NNW
NAVSTAR 52 R/B(PAM-D 4.0 06:00:59 18° NW 06:01:54 32° N 06:03:28 10° ENE
Okean 1-7 3.7 06:03:36 10° SW 06:07:30 34° W 06:11:29 10° NNW
Meteor 2-13 Rocket 4.4 06:01:26 10° N 06:07:31 89° W 06:13:34 10° S
Cosmos 407 Rocket 3.9 06:04:17 10° SW 06:09:11 43° WNW 06:14:13 10° N
Okean 2 Rocket 3.7 06:12:23 10° NNW 06:16:30 35° W 06:20:37 10° SSW
BREEZE M DEB (TANK) 4.0 06:16:42 10° S 06:18:46 25° ESE 06:22:38 10° ENE
SeaSat 1 3.7 06:18:11 10° SSW 06:21:42 20° WSW 06:25:14 10° WNW
Cosmos 1140 Rocket 3.4 06:23:35 10° SSW 06:28:41 78° WNW 06:33:51 10° NNE
